STARLINK-2513 (48317 NORAD) Tracking and Keplerian Element Data

This shows tracking and keplerian element data for the satellite.

Feedback or suggestion? Click here.




ElementValue
Catalog48317
NameSTARLINK-2513
Epoch Orbit1565
Epoch Day215.02933022
Epoch Year2021
RAAN71.8622
Inclination53.0653
Eccentricity0.0002062
Argument of Perigee101.2688
Mean Anonmoly258.8533
Mean Motion15.06393754
Decay Rate-1.004E-05
L11 48317U 21036AT 21215.02933022 -.00001004 00000-0 -48492-4 0 9995
L22 48317 53.0653 71.8622 0002062 101.2688 258.8533 15.06393754 15653

Live tracking and technical data element details for STARLINK-2513 (NORAD 48317). STARLINK-2513 can be tracked NOW for your location showing map with azimuth and elevation plus other details from your city location.

Track the satellite on the map from your city or location and see movement details for azimuth, elevation, latitude, longitude, range, height, and movement on the map or in text.







IsCatalogInMostPopularTable: catalog: 48317, numindb: 31
Update: records affected: 1



GetName: 48317 STARLINK-2513

Hit Count: updated at: Tue, 03 Aug 2021 19:46:11 GMT